FW1418 Weather Reports


Display with metric or nautical units.
time (UTC)temp
F
wind
direction
speed
MPH
gust
MPH
rain 1hr
in
rain 24hr
in
rain mn
in
humidity
%
barometer
mb
20260509101625 51 215 4.0 11.0 0.00 0.00 0.00 71 998.2
20260509100059 49 177 0.0 3.0 0.00 0.00 0.00 71 998.3
20260509094559 50 177 0.0 2.0 0.00 0.00 0.00 67 998.6
20260509093049 52 177 0.0 3.0 0.00 0.00 0.00 64 999.0
20260509091551 53 188 0.0 5.0 0.00 0.00 0.00 60 999.1
20260509090053 53 184 1.0 8.0 0.00 0.00 0.00 58 999.4
20260509084543 53 206 3.0 9.0 0.00 0.00 0.00 55 999.7
20260509083041 53 160 4.0 14.0 0.00 0.00 0.00 52 999.9
20260509081535 53 163 3.0 10.0 0.00 0.00 0.00 49 1000.2
20260509080043 54 211 6.0 16.0 0.00 0.00 0.00 47 1000.4
20260509074538 54 192 3.0 10.0 0.00 0.00 0.00 45 1000.3
20260509073038 54 205 5.0 10.0 0.00 0.00 0.00 44 1000.4
20260509071526 55 184 5.0 14.0 0.00 0.00 0.00 43 1000.8
20260509070024 54 146 2.0 8.0 0.00 0.00 0.00 46 1001.0
20260509064521 54 187 4.0 10.0 0.00 0.00 0.00 47 1001.3
20260509063028 54 159 3.0 9.0 0.00 0.00 0.00 46 1001.7
20260509061516 53 196 4.0 9.0 0.00 0.00 0.00 46 1001.9
20260509060022 54 165 3.0 9.0 0.00 0.00 0.00 46 1002.2
20260509054511 54 193 3.0 7.0 0.00 0.00 0.00 46 1002.3
20260509053006 54 194 1.0 8.0 0.00 0.00 0.00 47 1002.4
20260509051512 53 168 2.0 7.0 0.00 0.00 0.00 52 1002.6
20260509050004 53 183 1.0 3.0 0.00 0.00 0.00 52 1002.8
20260509044606 54 183 2.0 6.0 0.00 0.00 0.00 49 1003.2
20260509043058 54 199 3.0 9.0 0.00 0.00 0.00 48 1003.4
20260509041550 53 198 3.0 9.0 0.00 0.00 0.00 49 1003.7
20260509034545 54 188 3.0 8.0 0.00 0.00 0.00 46 1004.1
20260509033107 54 164 5.0 8.0 0.00 0.00 0.00 47 1004.2
20260509031542 52 202 3.0 7.0 0.00 0.00 0.00 51 1004.3
20260509030042 51 122 1.0 4.0 0.00 0.00 0.00 57 1004.5
20260509024552 50 59 0.0 2.0 0.00 0.00 0.00 57 1004.5
20260509023041 49 58 0.0 2.0 0.00 0.00 0.00 61 1004.6
20260509021540 48 58 0.0 0.0 0.00 0.00 0.00 66 1004.8
20260509020039 48 58 0.0 0.0 0.00 0.00 0.00 65 1004.7
20260509014542 48 58 0.0 1.0 0.00 0.00 0.00 66 1004.7
20260509013038 48 58 0.0 2.0 0.00 0.00 0.00 68 1004.7
20260509011544 49 59 0.0 2.0 0.00 0.00 0.00 63 1004.7
20260509010040 53 58 0.0 6.0 0.00 0.00 0.00 55 1004.7
20260509003036 58 186 1.0 6.0 0.00 0.00 0.00 39 1004.6
20260509001536 59 200 3.0 12.0 0.00 0.00 0.00 38 1004.6
20260509000033 59 159 3.0 8.0 0.00 0.00 0.00 38 1004.7
20260508234533 60 194 3.0 9.0 0.00 0.00 0.00 37 1005.0
20260508233036 60 215 2.0 7.0 0.00 0.00 0.00 38 1005.1
20260508231530 60 204 6.0 9.0 0.00 0.00 0.00 37 1005.1
20260508230030 61 215 4.0 11.0 0.00 0.00 0.00 36 1005.1
20260508224529 61 205 6.0 14.0 0.00 0.00 0.00 36 1005.1
20260508223030 62 268 5.0 14.0 0.00 0.00 0.00 36 1005.1
20260508221528 63 194 7.0 12.0 0.00 0.00 0.00 34 1005.1
20260508220026 63 240 2.0 12.0 0.00 0.00 0.00 34 1005.4
20260508214532 62 202 5.0 13.0 0.00 0.00 0.00 34 1005.5
20260508213025 64 188 7.0 14.0 0.00 0.00 0.00 32 1005.6
20260508211526 64 192 10.0 17.0 0.00 0.00 0.00 32 1005.6
20260508210032 65 157 3.0 14.0 0.00 0.00 0.00 33 1005.5
20260508204521 63 248 4.0 11.0 0.00 0.00 0.00 34 1005.8
20260508203024 62 258 9.0 16.0 0.00 0.00 0.00 35 1006.1
20260508201517 62 173 6.0 25.0 0.00 0.00 0.00 34 1006.3
20260508200017 62 182 8.0 19.0 0.00 0.00 0.00 34 1006.5
20260508194513 62 212 6.0 21.0 0.00 0.00 0.00 35 1006.7
20260508193013 61 138 9.0 24.0 0.00 0.00 0.00 36 1006.9
20260508191510 62 339 5.0 20.0 0.00 0.00 0.00 36 1007.0
20260508190007 62 281 6.0 19.0 0.00 0.00 0.00 36 1007.4
20260508184509 62 259 7.0 23.0 0.00 0.00 0.00 36 1007.9
20260508183005 61 231 6.0 30.0 0.00 0.00 0.00 36 1007.6
20260508181503 60 266 6.0 18.0 0.00 0.00 0.00 35 1007.9
20260508180003 61 163 6.0 21.0 0.00 0.00 0.00 36 1007.9
20260508174601 60 276 7.0 17.0 0.00 0.00 0.00 36 1008.0
20260508173059 60 217 8.0 20.0 0.00 0.00 0.00 36 1008.2
20260508171557 60 259 11.0 22.0 0.00 0.00 0.00 35 1008.4
20260508170059 58 205 10.0 19.0 0.00 0.00 0.00 37 1008.7
20260508164553 59 206 6.0 20.0 0.00 0.00 0.00 37 1008.7
20260508163104 58 265 8.0 24.0 0.00 0.00 0.00 37 1008.8
20260508161556 57 245 6.0 17.0 0.00 0.00 0.00 39 1009.0
20260508160045 56 238 9.0 20.0 0.00 0.00 0.00 42 1009.2
20260508154543 56 184 5.0 23.0 0.00 0.00 0.00 45 1009.3
20260508153054 54 206 6.0 15.0 0.00 0.00 0.00 45 1009.4
20260508151538 55 267 8.0 19.0 0.00 0.00 0.00 46 1009.6
20260508150037 54 183 4.0 15.0 0.00 0.00 0.00 51 1009.5
20260508144535 54 190 6.0 18.0 0.00 0.00 0.00 51 1009.6
20260508143055 54 226 6.0 22.0 0.00 0.00 0.00 53 1009.8
20260508141531 54 192 3.0 12.0 0.00 0.00 0.00 57 1009.9
20260508140027 52 140 7.0 16.0 0.00 0.00 0.00 59 1009.9
20260508134533 51 202 6.0 12.0 0.00 0.00 0.00 61 1010.0
20260508133021 48 202 4.0 11.0 0.00 0.00 0.00 66 1010.0
20260508131517 47 192 2.0 10.0 0.00 0.00 0.00 70 1010.1
20260508130013 46 186 3.0 12.0 0.00 0.00 0.00 71 1010.2
20260508124511 45 155 2.0 6.0 0.00 0.00 0.00 72 1010.4
20260508123014 44 136 2.0 7.0 0.00 0.00 0.00 76 1010.4
20260508121504 42 169 0.0 4.0 0.00 0.00 0.00 77 1010.4
20260508120001 40 202 1.0 3.0 0.00 0.00 0.00 83 1010.4
20260508114605 37 202 0.0 3.0 0.00 0.00 0.00 86 1010.4
20260508113001 36 205 2.0 5.0 0.00 0.00 0.00 88 1010.3
20260508111604 36 205 0.0 1.0 0.00 0.00 0.00 88 1010.3
20260508110105 36 205 0.0 2.0 0.00 0.00 0.00 89 1010.3
20260508104600 35 206 0.0 1.0 0.00 0.00 0.00 89 1010.5
20260508103100 36 206 0.0 2.0 0.00 0.00 0.00 88 1010.3